Retour au catalogue

SL-3 R/B

ActifPO
NORAD 13819·ROCKET BODY·🇷🇺 Russia

Lancé Feb 16, 1983 depuis Plesetsk Cosmodrome

Loading…

Prochains Passages (prochaines 24 heures)

TLE

FraisSource: Space-Track

Époque: Sep 14, 2026, 18:36 UTC

1 13819U 83010B   26257.77553813  .00014175  00000-0  23926-3 0  9998
2 13819  81.1002 129.4573 0015537 100.3075 259.9925 15.51358163387214

Suivez SL-3 R/B en temps réel avec AllMySat

Download on the App Store